2016-03-02 00:03:08 r, 17.54m,0000000009Hz,0000053826c,0000000.117s, 007.0C,00002195
2016-03-02 00:13:11 r, 17.75m,0000000007Hz,0000065441c,0000000.142s, 006.7C,00002195
2016-03-02 00:23:09 r, 17.76m,0000000007Hz,0000066179c,0000000.144s, 006.7C,00002195
2016-03-02 00:33:09 r, 17.78m,0000000007Hz,0000067357c,0000000.146s, 006.4C,00002195
2016-03-02 00:43:09 r, 17.80m,0000000007Hz,0000068686c,0000000.149s, 006.1C,00002195
2016-03-02 00:53:10 r, 17.80m,0000000007Hz,0000069019c,0000000.150s, 005.8C,00002195
2016-03-02 01:03:08 r, 17.82m,0000000007Hz,0000069789c,0000000.151s, 005.8C,00002195
2016-03-02 01:13:08 r, 17.81m,0000000007Hz,0000069375c,0000000.151s, 005.4C,00002195
2016-03-02 01:23:08 r, 17.82m,0000000006Hz,0000069764c,0000000.151s, 005.1C,00002195
2016-03-02 01:33:09 r, 17.82m,0000000007Hz,0000069837c,0000000.152s, 005.1C,00002195
2016-03-02 01:43:08 r, 17.82m,0000000007Hz,0000070028c,0000000.152s, 004.8C,00002195
2016-03-02 01:53:11 r, 17.82m,0000000006Hz,0000069958c,0000000.152s, 004.8C,00002195
2016-03-02 02:03:08 r, 17.82m,0000000007Hz,0000070626c,0000000.153s, 004.8C,00002195
2016-03-02 02:13:08 r, 17.82m,0000000006Hz,0000070206c,0000000.152s, 004.8C,00002195
2016-03-02 02:23:09 r, 17.83m,0000000007Hz,0000070759c,0000000.154s, 004.5C,00002195
2016-03-02 02:33:08 r, 17.82m,0000000007Hz,0000070378c,0000000.153s, 004.5C,00002195
2016-03-02 02:43:11 r, 17.82m,0000000007Hz,0000070296c,0000000.153s, 004.1C,00002195
2016-03-02 02:53:08 r, 17.82m,0000000006Hz,0000070044c,0000000.152s, 004.1C,00002195
2016-03-02 03:03:08 r, 17.82m,0000000006Hz,0000069793c,0000000.151s, 004.1C,00002195
2016-03-02 03:13:10 r, 17.81m,0000000007Hz,0000069313c,0000000.150s, 003.8C,00002195
2016-03-02 03:23:09 r, 17.82m,0000000006Hz,0000069839c,0000000.152s, 003.8C,00002195
2016-03-02 03:33:08 r, 17.82m,0000000007Hz,0000069922c,0000000.152s, 003.8C,00002195
2016-03-02 03:43:10 r, 17.82m,0000000006Hz,0000069747c,0000000.151s, 003.8C,00002195
2016-03-02 03:53:09 r, 17.81m,0000000007Hz,0000069217c,0000000.150s, 003.8C,00002195
2016-03-02 04:03:08 r, 17.80m,0000000007Hz,0000069063c,0000000.150s, 003.5C,00002195
2016-03-02 04:13:11 r, 17.80m,0000000006Hz,0000069062c,0000000.150s, 003.5C,00002195
2016-03-02 04:23:09 r, 17.80m,0000000007Hz,0000069085c,0000000.150s, 003.5C,00002195
2016-03-02 04:33:08 r, 17.79m,0000000007Hz,0000068479c,0000000.149s, 003.5C,00002195
2016-03-02 04:43:11 r, 17.76m,0000000007Hz,0000066285c,0000000.144s, 003.2C,00002195
2016-03-02 04:53:09 r, 17.79m,0000000006Hz,0000068529c,0000000.149s, 003.2C,00002195
2016-03-02 05:03:08 r, 17.80m,0000000007Hz,0000068785c,0000000.149s, 003.2C,00002195
2016-03-02 05:13:10 r, 17.79m,0000000007Hz,0000068159c,0000000.148s, 003.2C,00002195
2016-03-02 05:23:09 r, 17.79m,0000000007Hz,0000067618c,0000000.147s, 003.2C,00002195
2016-03-02 05:33:08 r, 17.78m,0000000007Hz,0000067238c,0000000.146s, 003.2C,00002195
2016-03-02 05:43:09 r, 17.76m,0000000007Hz,0000066325c,0000000.144s, 003.2C,00002195
2016-03-02 05:53:08 r, 17.72m,0000000007Hz,0000063651c,0000000.138s, 003.2C,00002195
2016-03-02 06:03:08 r, 17.55m,0000000008Hz,0000054672c,0000000.119s, 002.9C,00002195
2016-03-02 06:13:10 r, 16.99m,0000000014Hz,0000032763c,0000000.071s, 002.9C,00002195
2016-03-02 06:23:08 r, 15.82m,0000000042Hz,0000011020c,0000000.024s, 002.9C,00002195
2016-03-02 06:33:08 r, 13.93m,0000000239Hz,0000000000c,0000000.000s, 002.9C,00002195
2016-03-02 06:43:08 r, 11.70m,0000001849Hz,0000000000c,0000000.000s, 002.9C,00002195
2016-03-02 06:53:09 r, 09.70m,0000011769Hz,0000000000c,0000000.000s, 002.9C,00002195
2016-03-02 07:03:08 r, 08.19m,0000047096Hz,0000000000c,0000000.000s, 002.5C,00002195
2016-03-02 07:13:11 r, 07.16m,0000122132Hz,0000000000c,0000000.000s, 002.5C,00002195
2016-03-02 07:23:09 r, 06.47m,0000230442Hz,0000000000c,0000000.000s, 002.9C,00002195
2016-03-02 07:33:08 r, 06.00m,0000353070Hz,0000000000c,0000000.000s, 002.9C,00002195
2016-03-02 07:43:08 r, 00.00m,0000475491Hz,0000000000c,0000000.000s, 002.9C,00002195
2016-03-02 07:53:11 r, 00.00m,0000560824Hz,0000000000c,0000000.000s, 002.9C,00002195
2016-03-02 08:03:08 r, 00.00m,0000560970Hz,0000000000c,0000000.000s, 002.9C,00002195
2016-03-02 08:13:08 r, 00.00m,0000560956Hz,0000000000c,0000000.000s, 002.9C,00002195
2016-03-02 08:23:11 r, 00.00m,0000561051Hz,0000000000c,0000000.000s, 003.5C,00002195
2016-03-02 08:33:08 r, 00.00m,0000561044Hz,0000000000c,0000000.000s, 004.1C,00002195
2016-03-02 08:43:09 r, 00.00m,0000561260Hz,0000000000c,0000000.000s, 005.8C,00002195
2016-03-02 08:53:10 r, 00.00m,0000561616Hz,0000000000c,0000000.000s, 007.7C,00002195
2016-03-02 09:03:08 r, 00.00m,0000561989Hz,0000000000c,0000000.000s, 009.6C,00002195
2016-03-02 09:13:08 r, 00.00m,0000562103Hz,0000000000c,0000000.000s, 010.9C,00002195
2016-03-02 09:23:10 r, 00.00m,0000562102Hz,0000000000c,0000000.000s, 011.9C,00002195
2016-03-02 09:33:08 r, 00.00m,0000562465Hz,0000000000c,0000000.000s, 012.8C,00002195
2016-03-02 09:43:08 r, 00.00m,0000562506Hz,0000000000c,0000000.000s, 013.8C,00002195
2016-03-02 09:53:10 r, 00.00m,0000562589Hz,0000000000c,0000000.000s, 014.5C,00002195
2016-03-02 10:03:08 r, 00.00m,0000562688Hz,0000000000c,0000000.000s, 015.1C,00002195
2016-03-02 10:13:08 r, 00.00m,0000562822Hz,0000000000c,0000000.000s, 016.1C,00002195
2016-03-02 10:23:08 r, 00.00m,0000562943Hz,0000000000c,0000000.000s, 016.7C,00002195
2016-03-02 10:33:08 r, 00.00m,0000562957Hz,0000000000c,0000000.000s, 017.4C,00002195
2016-03-02 10:43:08 r, 00.00m,0000563089Hz,0000000000c,0000000.000s, 017.7C,00002195
2016-03-02 10:53:11 r, 00.00m,0000563192Hz,0000000000c,0000000.000s, 018.3C,00002195
2016-03-02 11:03:08 r, 00.00m,0000563165Hz,0000000000c,0000000.000s, 019.0C,00002195
2016-03-02 11:13:09 r, 00.00m,0000563312Hz,0000000000c,0000000.000s, 019.9C,00002195
2016-03-02 11:23:09 r, 00.00m,0000563597Hz,0000000000c,0000000.000s, 021.2C,00002195
2016-03-02 11:33:09 r, 00.00m,0000563546Hz,0000000000c,0000000.000s, 021.9C,00002195
2016-03-02 11:43:09 r, 00.00m,0000563703Hz,0000000000c,0000000.000s, 022.2C,00002195
2016-03-02 11:53:09 r, 00.00m,0000563679Hz,0000000000c,0000000.000s, 022.5C,00002195
2016-03-02 12:03:09 r, 00.00m,0000563721Hz,0000000000c,0000000.000s, 023.2C,00002195
2016-03-02 12:13:08 r, 00.00m,0000563759Hz,0000000000c,0000000.000s, 023.2C,00002195
2016-03-02 12:23:09 r, 00.00m,0000563787Hz,0000000000c,0000000.000s, 023.8C,00002195
2016-03-02 12:33:08 r, 00.00m,0000563796Hz,0000000000c,0000000.000s, 023.5C,00002195
2016-03-02 12:43:09 r, 00.00m,0000563799Hz,0000000000c,0000000.000s, 023.5C,00002195
2016-03-02 12:53:09 r, 00.00m,0000563874Hz,0000000000c,0000000.000s, 023.8C,00002195
2016-03-02 13:03:09 r, 00.00m,0000564024Hz,0000000000c,0000000.000s, 024.1C,00002195
2016-03-02 13:13:09 r, 00.00m,0000563832Hz,0000000000c,0000000.000s, 024.1C,00002195
2016-03-02 13:23:10 r, 00.00m,0000563853Hz,0000000000c,0000000.000s, 023.8C,00002195
2016-03-02 13:33:09 r, 00.00m,0000563800Hz,0000000000c,0000000.000s, 023.5C,00002195
2016-03-02 13:43:09 r, 00.00m,0000563902Hz,0000000000c,0000000.000s, 024.1C,00002195
2016-03-02 13:53:09 r, 00.00m,0000563872Hz,0000000000c,0000000.000s, 024.1C,00002195
2016-03-02 14:03:09 r, 00.00m,0000563801Hz,0000000000c,0000000.000s, 023.5C,00002195
2016-03-02 14:13:09 r, 00.00m,0000563810Hz,0000000000c,0000000.000s, 023.8C,00002195
2016-03-02 14:23:09 r, 00.00m,0000563781Hz,0000000000c,0000000.000s, 023.5C,00002195
2016-03-02 14:33:09 r, 00.00m,0000563691Hz,0000000000c,0000000.000s, 023.2C,00002195
2016-03-02 14:43:09 r, 00.00m,0000563615Hz,0000000000c,0000000.000s, 022.8C,00002195
2016-03-02 14:53:11 r, 00.00m,0000563513Hz,0000000000c,0000000.000s, 022.2C,00002195
2016-03-02 15:03:09 r, 00.00m,0000563585Hz,0000000000c,0000000.000s, 022.2C,00002195
2016-03-02 15:13:09 r, 00.00m,0000563489Hz,0000000000c,0000000.000s, 021.9C,00002195
2016-03-02 15:23:11 r, 00.00m,0000563471Hz,0000000000c,0000000.000s, 021.5C,00002195
2016-03-02 15:33:09 r, 00.00m,0000563451Hz,0000000000c,0000000.000s, 020.9C,00002195
2016-03-02 15:43:09 r, 00.00m,0000563308Hz,0000000000c,0000000.000s, 020.3C,00002195
2016-03-02 15:53:09 r, 00.00m,0000563194Hz,0000000000c,0000000.000s, 019.3C,00002195
2016-03-02 16:03:10 r, 00.00m,0000563059Hz,0000000000c,0000000.000s, 018.6C,00002195
2016-03-02 16:13:09 r, 00.00m,0000562893Hz,0000000000c,0000000.000s, 017.4C,00002195
2016-03-02 16:23:10 r, 00.00m,0000562740Hz,0000000000c,0000000.000s, 016.1C,00002195
2016-03-02 16:33:09 r, 00.00m,0000562523Hz,0000000000c,0000000.000s, 014.8C,00002195
2016-03-02 16:43:09 r, 00.00m,0000562399Hz,0000000000c,0000000.000s, 013.8C,00002195
2016-03-02 16:53:11 r, 00.00m,0000562280Hz,0000000000c,0000000.000s, 012.8C,00002195
2016-03-02 17:03:09 r, 00.00m,0000562223Hz,0000000000c,0000000.000s, 012.5C,00002195
2016-03-02 17:13:09 r, 00.00m,0000562273Hz,0000000000c,0000000.000s, 012.8C,00002195
2016-03-02 17:23:11 r, 00.00m,0000562249Hz,0000000000c,0000000.000s, 013.2C,00002195
2016-03-02 17:33:09 r, 00.00m,0000501159Hz,0000000000c,0000000.000s, 013.2C,00002195
2016-03-02 17:43:09 r, 05.95m,0000369465Hz,0000000000c,0000000.000s, 012.5C,00002195
2016-03-02 17:53:09 r, 06.41m,0000243089Hz,0000000000c,0000000.000s, 011.6C,00002195
2016-03-02 18:03:09 r, 06.97m,0000145600Hz,0000000000c,0000000.000s, 010.9C,00002195
2016-03-02 18:13:09 r, 07.73m,0000072134Hz,0000000000c,0000000.000s, 010.3C,00002195
2016-03-02 18:23:10 r, 08.88m,0000024875Hz,0000000000c,0000000.000s, 009.6C,00002195
2016-03-02 18:33:09 r, 10.61m,0000005074Hz,0000000000c,0000000.000s, 009.0C,00002195
2016-03-02 18:43:09 r, 12.72m,0000000724Hz,0000000000c,0000000.000s, 008.3C,00002195
2016-03-02 18:53:10 r, 14.87m,0000000100Hz,0000004632c,0000000.010s, 008.3C,00002195
2016-03-02 19:03:09 r, 16.47m,0000000023Hz,0000020286c,0000000.044s, 008.0C,00002195
2016-03-02 19:13:09 r, 17.33m,0000000011Hz,0000044506c,0000000.097s, 007.7C,00002195
2016-03-02 19:23:11 r, 17.65m,0000000007Hz,0000059787c,0000000.130s, 007.4C,00002195
2016-03-02 19:33:09 r, 17.75m,0000000007Hz,0000065355c,0000000.142s, 007.4C,00002195
2016-03-02 19:43:09 r, 17.77m,0000000007Hz,0000067003c,0000000.145s, 007.0C,00002195
2016-03-02 19:53:11 r, 17.79m,0000000007Hz,0000067843c,0000000.147s, 007.0C,00002195
2016-03-02 20:03:09 r, 17.79m,0000000006Hz,0000067746c,0000000.147s, 006.7C,00002195
2016-03-02 20:13:09 r, 17.78m,0000000006Hz,0000067153c,0000000.146s, 006.7C,00002195
2016-03-02 20:23:09 r, 17.77m,0000000007Hz,0000067061c,0000000.146s, 006.4C,00002195
2016-03-02 20:33:09 r, 17.77m,0000000007Hz,0000067066c,0000000.146s, 006.4C,00002195
2016-03-02 20:43:09 r, 17.78m,0000000007Hz,0000067126c,0000000.146s, 006.4C,00002195
2016-03-02 20:53:09 r, 17.78m,0000000007Hz,0000067445c,0000000.146s, 006.4C,00002195
2016-03-02 21:03:09 r, 17.79m,0000000007Hz,0000067865c,0000000.147s, 006.4C,00002195
2016-03-02 21:13:09 r, 17.79m,0000000007Hz,0000068238c,0000000.148s, 006.1C,00002195
2016-03-02 21:23:09 r, 17.80m,0000000007Hz,0000068875c,0000000.149s, 006.1C,00002195
2016-03-02 21:33:09 r, 17.80m,0000000007Hz,0000068793c,0000000.149s, 006.1C,00002195
2016-03-02 21:43:09 r, 17.80m,0000000007Hz,0000069006c,0000000.150s, 005.8C,00002195
2016-03-02 21:53:09 r, 17.81m,0000000007Hz,0000069244c,0000000.150s, 005.8C,00002195
2016-03-02 22:03:09 r, 17.82m,0000000006Hz,0000070389c,0000000.153s, 005.8C,00002195
2016-03-02 22:13:09 r, 17.83m,0000000007Hz,0000070826c,0000000.154s, 005.8C,00002195
2016-03-02 22:23:09 r, 17.83m,0000000007Hz,0000070732c,0000000.153s, 005.4C,00002195
2016-03-02 22:33:10 r, 17.84m,0000000007Hz,0000071207c,0000000.155s, 005.4C,00002195
2016-03-02 22:43:09 r, 17.86m,0000000007Hz,0000072773c,0000000.158s, 005.4C,00002195
2016-03-02 22:53:09 r, 17.86m,0000000006Hz,0000072929c,0000000.158s, 005.1C,00002195
2016-03-02 23:03:09 r, 17.88m,0000000006Hz,0000073835c,0000000.160s, 005.1C,00002195
2016-03-02 23:13:09 r, 17.88m,0000000007Hz,0000074002c,0000000.161s, 005.1C,00002195
2016-03-02 23:23:10 r, 17.88m,0000000006Hz,0000074061c,0000000.161s, 005.1C,00002195
2016-03-02 23:33:09 r, 17.89m,0000000006Hz,0000074773c,0000000.162s, 005.1C,00002195
2016-03-02 23:43:09 r, 17.89m,0000000006Hz,0000074828c,0000000.162s, 004.8C,00002195
2016-03-02 23:53:11 r, 17.89m,0000000006Hz,0000074722c,0000000.162s, 004.8C,00002195
